Jackson Hawkins Field, MS

12:24 PM CDT on September 23, 2017 (GMT -0500)
Hawkins

Weather History for KHKS - April, 2013

Change the Weather History Date:

Monday, April 8, 2013

  Actual Average Record
Temperature  
Mean Temperature 71 °F 63 °F  
Max Temperature 82 °F 74 °F 87 °F (2011)
Min Temperature 60 °F 52 °F 39 °F (2007)
Degree Days  
Heating Degree Days 0 4  
Month to date heating degree days 39  
Since 1 July heating degree days 2158  
Cooling Degree Days 6 2  
Month to date cooling degree days 16  
Year to date cooling degree days 55  
Growing Degree Days 21 (Base 50)    
Moisture  
Dew Point 59 °F    
Average Humidity 72    
Maximum Humidity 93    
Minimum Humidity 42    
Precipitation  
Precipitation 0.00 in 0.18 in 1.96 in (2002)
Month to date precipitation 1.53  
Year to date precipitation 16.03  
Sea Level Pressure  
Sea Level Pressure 29.96 in    
Wind  
Wind Speed 10 mph (SSE)    
Max Wind Speed 20 mph    
Max Gust Speed 25 mph    
Visibility 10 miles    
Events      
T = Trace of Precipitation, MM = Missing Value Source: NWS Daily Summary

Daily Weather History Graph

Daily Weather History Graph

Search for Another Location

Airport or City:

Trip Planner

Search our weather history database for the weather conditions in past years. The results will help you decide how hot, cold, wet, or windy it might be!

Date:

Astronomy

Apr. 08, 2013 Rise Set
Actual Time 6:39 AM CDT 7:25 PM CDT
Civil Twilight 6:15 AM CDT 7:50 PM CDT
Nautical Twilight 5:45 AM CDT 8:20 PM CDT
Astronomical Twilight 5:15 AM CDT 8:50 PM CDT
Moon 5:25 AM CDT (4/8) 6:03 PM CDT (4/8)
Length of Visible Light 13h 35m
Length of Day
12h 45m
Waning Crescent, 3% of the Moon is Illuminated
Apr 8
Waning Crescent
Apr 10
New
Apr 18
First Quarter
Apr 25
Full
May 2
Last Quarter

Hourly Weather History & Observations

Time (CDT) Temp. Heat Index Dew Point Humidity Pressure Visibility Wind Dir Wind Speed Gust Speed Precip Events Conditions
12:53 AM 63.0 °F - 57.0 °F 81% 29.96 in 10.0 mi South 9.2 mph - N/A   Clear
1:53 AM 62.1 °F - 57.0 °F 84% 29.96 in 10.0 mi South 9.2 mph - N/A   Clear
2:53 AM 60.1 °F - 57.0 °F 90% 29.96 in 10.0 mi South 6.9 mph - N/A   Clear
3:15 AM 60.8 °F - 57.2 °F 88% 29.97 in 10.0 mi South 8.1 mph - N/A   Scattered Clouds
3:27 AM 60.8 °F - 57.2 °F 88% 29.97 in 10.0 mi South 10.4 mph - N/A   Mostly Cloudy
3:53 AM 61.0 °F - 59.0 °F 93% 29.94 in 10.0 mi South 11.5 mph - N/A   Overcast
4:53 AM 60.1 °F - 57.9 °F 93% 29.94 in 10.0 mi SSE 9.2 mph - N/A   Mostly Cloudy
5:01 AM 60.8 °F - 57.2 °F 88% 29.96 in 9.0 mi SSE 8.1 mph - N/A   Scattered Clouds
5:17 AM 60.8 °F - 57.2 °F 88% 29.96 in 6.0 mi SSE 9.2 mph - N/A   Mostly Cloudy
5:53 AM 60.1 °F - 57.9 °F 93% 29.95 in 6.0 mi SSE 5.8 mph - N/A   Mostly Cloudy
6:53 AM 60.1 °F - 57.9 °F 93% 29.96 in 8.0 mi SSE 6.9 mph - N/A   Overcast
7:53 AM 62.1 °F - 59.0 °F 90% 29.98 in 9.0 mi SSE 8.1 mph - N/A   Overcast
8:12 AM 62.6 °F - 59.0 °F 88% 30.00 in 10.0 mi SSE 8.1 mph - N/A   Overcast
8:53 AM 64.9 °F - 60.1 °F 84% 29.99 in 10.0 mi SSE 8.1 mph - N/A   Overcast
9:21 AM 66.2 °F - 59.0 °F 78% 30.01 in 10.0 mi South 10.4 mph - N/A   Mostly Cloudy
9:53 AM 70.0 °F - 60.1 °F 71% 29.99 in 10.0 mi SSE 10.4 mph - N/A   Mostly Cloudy
10:41 AM 71.6 °F - 57.2 °F 60% 30.03 in 10.0 mi SSW 8.1 mph - N/A   Mostly Cloudy
10:53 AM 73.0 °F - 57.9 °F 59% 30.01 in 10.0 mi South 10.4 mph 18.4 mph N/A   Mostly Cloudy
11:53 AM 73.9 °F - 57.9 °F 57% 30.01 in 10.0 mi South 8.1 mph - N/A   Mostly Cloudy
12:53 PM 77.0 °F - 59.0 °F 54% 29.98 in 10.0 mi SSE 9.2 mph - N/A   Mostly Cloudy
1:53 PM 78.1 °F - 57.9 °F 50% 29.96 in 10.0 mi SSE 16.1 mph 20.7 mph N/A   Mostly Cloudy
2:53 PM 79.0 °F - 57.9 °F 48% 29.94 in 10.0 mi South 17.3 mph 24.2 mph N/A   Scattered Clouds
3:53 PM 82.0 °F 82.0 °F 57.9 °F 44% 29.91 in 10.0 mi South 18.4 mph 25.3 mph N/A   Partly Cloudy
4:53 PM 82.9 °F 82.6 °F 57.9 °F 42% 29.90 in 10.0 mi South 15.0 mph 24.2 mph N/A   Clear
5:53 PM 80.1 °F 80.4 °F 57.0 °F 45% 29.89 in 10.0 mi South 19.6 mph 25.3 mph N/A   Clear
6:53 PM 77.0 °F - 57.0 °F 50% 29.90 in 10.0 mi SSE 13.8 mph 21.9 mph N/A   Clear
7:53 PM 75.0 °F - 57.9 °F 55% 29.92 in 10.0 mi SSE 13.8 mph - N/A   Clear
8:53 PM 73.0 °F - 60.1 °F 64% 29.92 in 10.0 mi SSE 13.8 mph - N/A   Clear
9:53 PM 72.0 °F - 61.0 °F 68% 29.92 in 10.0 mi SSE 12.7 mph 24.2 mph N/A   Clear
10:53 PM 70.0 °F - 62.1 °F 76% 29.94 in 10.0 mi South 11.5 mph 19.6 mph N/A   Partly Cloudy
11:16 PM 69.8 °F - 62.6 °F 78% 29.96 in 10.0 mi South 10.4 mph - N/A   Mostly Cloudy
11:53 PM 71.1 °F - 63.0 °F 75% 29.94 in 10.0 mi SSE 12.7 mph - N/A   Overcast